Skip Page Navigation
NASA JPL Caltech
NASA Logo - Jet Propulsion Laboratory + View the NASA Portal
+ Near-Earth Object (NEO) Program
Search JPL
JPL Home Earth Solar System Stars & Galaxies Technology
JPL Solar System Dynamics
BODIES ORBITS EPHEMERIDES TOOLS PHYSICAL DATA DISCOVERY FAQ SITE MAP
JPL Small-Body Database Browser
Search: [ help ]  
23281 Vijayjain (2000 YY116)
Classification: Main-belt Asteroid          SPK-ID: 2023281
Ephemeris | Orbit Diagram | Orbital Elements | Physical Parameters | Discovery Circumstances ]

[ show orbit diagram ]
Orbital Elements at Epoch 2456400.5 (2013-Apr-18.0) TDB
Reference: MPO234954 (heliocentric ecliptic J2000)
 Element Value Uncertainty (1-sigma)   Units 
e 0.1659360 n/a  
a 2.3221991 n/a AU
q 1.9368627 n/a AU
i 5.66187 n/a deg
node 101.33823 n/a deg
peri 257.24219 n/a deg
M 284.30633 n/a deg
tp 2456672.2719765
(2014-Jan-14.77197650)
n/a JED
period 1292.5507714
3.54
n/a
n/a
d
yr
n 0.27851904 n/a deg/d
Q 2.7075355 n/a AU
  Orbit Determination Parameters
   # obs. used (total)      799  
   first obs. used      1993-??-??  
   last obs. used      2012-04-18  
   # oppositions      12  
   planetary ephem.      DE403  
   condition code      0  
   fit RMS      0.55  
   data source      MPC:mpn  
   producer      MPCLINUX  

Additional Information
 T_jup = 3.552 

Ephemeris | Orbit Diagram | Orbital Elements | Physical Parameters | Discovery Circumstances ]

Physical Parameter Table
Parameter Symbol Value Units Sigma Reference Notes
absolute magnitude H 15.2 mag n/a PDS3 (MPO 10263)  

23281 Vijayjain           Discovered 2000 Dec. 30 by the Lincoln Laboratory Near-Earth Asteroid Research Team in Socorro.
Vijay Jain (b. 1989) was awarded first place in the 2007 Intel International Science and Engineering Fair for his biochemistry team project. He attends the Herricks High School, New Hyde Park, New York, U.S.A.
NOTE: some special characters may not display properly (any characters within {} are an attempt to place the proper accent above a character)
Reference: 20070828/MPCPages.arcLast Updated: 2007-08-30

Alternate Designations
 2000 YY116 = 1998 HB135 = 1999 VA125 
Ephemeris | Orbit Diagram | Orbital Elements | Physical Parameters | Discovery Circumstances ]
ABOUT SSD CREDITS/AWARDS PRIVACY/COPYRIGHT GLOSSARY LINKS
FirstGov 2013-May-22 11:13 UT
(server date/time)  
NASA Home Page
Site Manager:   Donald K. Yeomans
Webmaster  Alan B. Chamberlin